CSN8958 ZSAM-ZBAD

Flight info

Callsign CSN8958
Flight time N/A
Altitude 31100
Route DOVP9Z DOVPU W643 FOC W644 AKAVO A470 EMRID W135 DOGVI A470 DPX A593 DALIM W157 AVBOX AVBO5L
Aircraft A20N/L-SDE3FGHIM3RWXY/LB1

Departure

Time N/A
Airport Xiamen Gaoqi International Airport (ZSAM)

Arrival

Time 2026-04-21 14:50
Airport Beijing Daxing International Airport (ZBAD)
Time Latitude Longitude Altitude Speed Heading
2026-04-21 14:06 36.40392 117.21839 37146 ft 460 kts 334°
2026-04-21 14:06 36.43468 117.20740 37148 ft 456 kts 330°
2026-04-21 14:07 36.49215 117.17636 37148 ft 448 kts 326°
2026-04-21 14:07 36.54916 117.14565 37165 ft 453 kts 326°
2026-04-21 14:08 36.60689 117.11517 37149 ft 451 kts 326°
2026-04-21 14:08 36.66449 117.08497 37152 ft 452 kts 326°
2026-04-21 14:09 36.72273 117.05445 37157 ft 456 kts 326°
2026-04-21 14:09 36.78077 117.02410 37150 ft 451 kts 326°
2026-04-21 14:10 36.83859 116.99374 37151 ft 453 kts 326°
2026-04-21 14:10 36.89670 116.96324 37146 ft 454 kts 326°
2026-04-21 14:11 36.95504 116.93256 37148 ft 453 kts 326°
2026-04-21 14:11 37.01289 116.90208 37153 ft 451 kts 326°
2026-04-21 14:12 37.07071 116.87156 37152 ft 452 kts 326°
2026-04-21 14:12 37.12843 116.84103 37144 ft 454 kts 325°
2026-04-21 14:13 37.18655 116.81027 37134 ft 454 kts 326°
2026-04-21 14:13 37.24666 116.78325 37150 ft 466 kts 332°
2026-04-21 14:14 37.30894 116.75958 37134 ft 467 kts 332°
2026-04-21 14:14 37.37118 116.73601 37136 ft 465 kts 332°
2026-04-21 14:15 37.43309 116.71255 37127 ft 463 kts 332°
2026-04-21 14:15 37.49462 116.68918 37129 ft 467 kts 332°
2026-04-21 14:16 37.55718 116.66541 37126 ft 470 kts 332°
2026-04-21 14:16 37.61915 116.64185 37132 ft 465 kts 332°
2026-04-21 14:17 37.68147 116.61807 37123 ft 468 kts 332°
2026-04-21 14:17 37.74340 116.59444 37125 ft 465 kts 332°
2026-04-21 14:18 37.80553 116.57065 37133 ft 466 kts 332°
2026-04-21 14:18 37.86655 116.54733 37131 ft 456 kts 332°
2026-04-21 14:19 37.92772 116.52377 36887 ft 463 kts 333°
2026-04-21 14:19 37.95816 116.51069 36348 ft 455 kts 327°
2026-04-21 14:19 37.98574 116.49277 35799 ft 435 kts 318°
2026-04-21 14:19 38.01018 116.47162 35108 ft 430 kts 315°
2026-04-21 14:20 38.03456 116.44981 34403 ft 431 kts 315°
2026-04-21 14:20 38.05904 116.42770 33697 ft 434 kts 315°
2026-04-21 14:20 38.08384 116.40518 32962 ft 438 kts 316°
2026-04-21 14:20 38.10801 116.38312 32220 ft 438 kts 316°
2026-04-21 14:21 38.13216 116.36105 31474 ft 440 kts 317°
2026-04-21 14:21 38.15525 116.33988 30774 ft 444 kts 317°
2026-04-21 14:21 38.19935 116.30029 29468 ft 452 kts 322°
2026-04-21 14:22 38.22780 116.28208 28704 ft 461 kts 332°
2026-04-21 14:22 38.25760 116.27015 27955 ft 465 kts 340°
2026-04-21 14:22 38.28953 116.26414 27200 ft 467 kts 350°
2026-04-21 14:22 38.33284 116.26656 26182 ft 468 kts
2026-04-21 14:23 38.36447 116.27599 25433 ft 469 kts 12°
2026-04-21 14:23 38.38525 116.28454 24931 ft 466 kts 12°
2026-04-21 14:23 38.41572 116.29614 24194 ft 461 kts 11°
2026-04-21 14:23 38.44645 116.30746 23453 ft 456 kts 11°
2026-04-21 14:24 38.47675 116.31829 22766 ft 451 kts 11°
2026-04-21 14:24 38.50661 116.32882 22101 ft 446 kts 11°
2026-04-21 14:24 38.53622 116.33918 21423 ft 441 kts 11°
2026-04-21 14:24 38.57544 116.35282 20499 ft 433 kts 12°
2026-04-21 14:25 38.60404 116.36276 19806 ft 427 kts 12°
2026-04-21 14:25 38.62324 116.36942 19427 ft 420 kts 12°
2026-04-21 14:25 38.65942 116.38443 18989 ft 402 kts 20°
2026-04-21 14:25 38.67645 116.39368 18648 ft 397 kts 20°
2026-04-21 14:26 38.70174 116.40694 18135 ft 392 kts 20°
2026-04-21 14:26 38.73482 116.42459 17448 ft 387 kts 20°
2026-04-21 14:26 38.75132 116.43340 17112 ft 384 kts 20°
2026-04-21 14:26 38.78397 116.45086 16456 ft 380 kts 21°
2026-04-21 14:27 38.80020 116.45956 16131 ft 378 kts 21°
2026-04-21 14:27 38.83193 116.47662 15838 ft 359 kts 21°
2026-04-21 14:27 38.85467 116.48884 15474 ft 350 kts 21°
2026-04-21 14:27 38.86957 116.49683 15137 ft 346 kts 21°
2026-04-21 14:28 38.89135 116.50855 14640 ft 341 kts 21°
2026-04-21 14:28 38.92044 116.52421 13957 ft 335 kts 21°
2026-04-21 14:28 38.93473 116.53191 13623 ft 332 kts 21°
2026-04-21 14:28 38.96275 116.54701 12954 ft 327 kts 21°
2026-04-21 14:29 38.98356 116.55825 12443 ft 323 kts 21°
2026-04-21 14:29 39.00412 116.56934 11941 ft 319 kts 21°
2026-04-21 14:29 39.02457 116.58039 11435 ft 317 kts 21°
2026-04-21 14:29 39.04482 116.59132 10942 ft 313 kts 21°
2026-04-21 14:30 39.05809 116.59851 10812 ft 304 kts 21°
2026-04-21 14:30 39.07758 116.60558 10809 ft 285 kts
2026-04-21 14:30 39.10320 116.60406 10810 ft 265 kts 354°
2026-04-21 14:30 39.11397 116.60274 10692 ft 262 kts 354°
2026-04-21 14:31 39.13812 116.59954 10350 ft 258 kts 354°
2026-04-21 14:31 39.15590 116.59699 10080 ft 256 kts 354°
2026-04-21 14:31 39.16796 116.59521 9635 ft 265 kts 353°
2026-04-21 14:31 39.19239 116.59154 8612 ft 271 kts 353°
2026-04-21 14:32 39.20495 116.58961 8110 ft 272 kts 353°
2026-04-21 14:32 39.22987 116.58578 7121 ft 274 kts 352°
2026-04-21 14:32 39.24256 116.58382 6816 ft 266 kts 352°
2026-04-21 14:32 39.26596 116.58019 6426 ft 249 kts 352°
2026-04-21 14:33 39.27747 116.57840 6212 ft 243 kts 352°
2026-04-21 14:33 39.29405 116.57583 5892 ft 238 kts 351°
2026-04-21 14:33 39.31052 116.57327 5591 ft 237 kts 351°
2026-04-21 14:33 39.33227 116.56987 5194 ft 238 kts 351°
2026-04-21 14:34 39.34320 116.56818 4999 ft 239 kts 350°
2026-04-21 14:34 39.35991 116.56557 4704 ft 239 kts 350°
2026-04-21 14:34 39.38180 116.56215 4305 ft 239 kts 350°
2026-04-21 14:34 39.39829 116.55958 3998 ft 239 kts 349°
2026-04-21 14:35 39.41487 116.55698 3703 ft 240 kts 348°
2026-04-21 14:35 39.42612 116.55524 3503 ft 240 kts 348°
2026-04-21 14:35 39.44816 116.55178 3109 ft 239 kts 348°
2026-04-21 14:35 39.45913 116.55007 2913 ft 238 kts 348°
2026-04-21 14:36 39.48082 116.54668 2519 ft 236 kts 348°
2026-04-21 14:36 39.49168 116.54497 2321 ft 235 kts 348°
2026-04-21 14:36 39.50795 116.54243 2197 ft 234 kts 348°
2026-04-21 14:36 39.52437 116.53985 2043 ft 236 kts 347°
2026-04-21 14:37 39.54069 116.53730 1921 ft 234 kts 348°
2026-04-21 14:37 39.55672 116.53478 1918 ft 232 kts 347°
2026-04-21 14:37 39.57279 116.53224 1914 ft 236 kts 348°
2026-04-21 14:37 39.59474 116.52879 1906 ft 237 kts 348°
2026-04-21 14:38 39.61113 116.52621 1914 ft 239 kts 348°
2026-04-21 14:38 39.62219 116.52447 1922 ft 241 kts 348°
2026-04-21 14:38 39.63897 116.52184 1910 ft 238 kts 348°
2026-04-21 14:38 39.65523 116.51929 1915 ft 237 kts 348°
2026-04-21 14:39 39.67164 116.51671 1910 ft 237 kts 348°
2026-04-21 14:39 39.69345 116.51327 1908 ft 236 kts 348°
2026-04-21 14:39 39.70439 116.51156 1906 ft 234 kts 348°
2026-04-21 14:39 39.72041 116.50903 1901 ft 230 kts 348°
2026-04-21 14:40 39.74117 116.50575 1899 ft 226 kts 348°
2026-04-21 14:40 39.75140 116.50414 1895 ft 227 kts 348°
2026-04-21 14:40 39.76721 116.50164 1901 ft 229 kts 348°
2026-04-21 14:40 39.78689 116.49384 1898 ft 220 kts 316°
2026-04-21 14:41 39.79345 116.48425 1919 ft 213 kts 294°
2026-04-21 14:41 39.79663 116.45926 1913 ft 214 kts 266°
2026-04-21 14:41 39.79595 116.44028 1883 ft 212 kts 265°
2026-04-21 14:41 39.79493 116.42108 1887 ft 212 kts 264°
2026-04-21 14:42 39.79407 116.40832 1888 ft 214 kts 262°
2026-04-21 14:42 39.79262 116.38943 1887 ft 212 kts 262°
2026-04-21 14:42 39.78498 116.36755 1894 ft 196 kts 224°
2026-04-21 14:42 39.77790 116.36043 1882 ft 192 kts 208°
2026-04-21 14:43 39.76058 116.35889 1901 ft 186 kts 177°
2026-04-21 14:43 39.75212 116.36017 1871 ft 179 kts 179°
2026-04-21 14:43 39.74027 116.36182 1847 ft 160 kts 179°
2026-04-21 14:43 39.72646 116.36382 1903 ft 147 kts 180°
2026-04-21 14:44 39.71933 116.36479 2018 ft 158 kts 180°
2026-04-21 14:44 39.70805 116.36639 1967 ft 167 kts 178°
2026-04-21 14:44 39.69684 116.36814 1890 ft 156 kts 179°
2026-04-21 14:44 39.68382 116.37023 1806 ft 125 kts 180°
2026-04-21 14:45 39.67531 116.37155 1857 ft 120 kts 180°
2026-04-21 14:45 39.66656 116.37280 1983 ft 134 kts 180°
2026-04-21 14:45 39.66039 116.37372 1937 ft 136 kts 179°
2026-04-21 14:45 39.65125 116.37519 1869 ft 126 kts 179°
2026-04-21 14:46 39.63980 116.37698 1923 ft 125 kts 180°
2026-04-21 14:46 39.63392 116.37789 1914 ft 127 kts 180°
2026-04-21 14:46 39.62223 116.37972 1902 ft 127 kts 181°
2026-04-21 14:46 39.61640 116.38063 1908 ft 127 kts 180°
2026-04-21 14:47 39.60749 116.38202 1864 ft 132 kts 181°
2026-04-21 14:47 39.59532 116.38394 1619 ft 129 kts 181°
2026-04-21 14:47 39.58653 116.38534 1446 ft 127 kts 180°
2026-04-21 14:47 39.57773 116.38671 1284 ft 127 kts 180°
2026-04-21 14:48 39.56890 116.38809 1123 ft 127 kts 179°
2026-04-21 14:48 39.56010 116.38948 949 ft 127 kts 179°
2026-04-21 14:48 39.55435 116.39038 841 ft 126 kts 178°
2026-04-21 14:48 39.54569 116.39175 669 ft 123 kts 178°
2026-04-21 14:49 39.53444 116.39352 456 ft 122 kts 178°
2026-04-21 14:49 39.52878 116.39442 349 ft 123 kts 177°
2026-04-21 14:49 39.51756 116.39619 123 ft 119 kts 176°
2026-04-21 14:49 39.51256 116.39669 94 ft 83 kts 175°
2026-04-21 14:50 39.50812 116.39751 94 ft 65 kts 175°
2026-04-21 14:50 39.50376 116.39846 94 ft 60 kts 175°
2026-04-21 14:50 39.50164 116.39861 94 ft 11 kts 176°
2026-04-21 14:50 39.50077 116.39940 94 ft 14 kts 137°
2026-04-21 14:51 39.50022 116.39998 94 ft 16 kts 143°
2026-04-21 14:51 39.49954 116.40060 94 ft 10 kts 144°
2026-04-21 14:51 39.49927 116.40150 94 ft 12 kts 93°
2026-04-21 14:51 39.49939 116.40334 94 ft 18 kts 84°
2026-04-21 14:52 39.49953 116.40453 94 ft 21 kts 80°
2026-04-21 14:52 39.49983 116.40616 94 ft 13 kts 47°
2026-04-21 14:52 39.50116 116.40616 94 ft 17 kts 352°
2026-04-21 14:52 39.50190 116.40604 94 ft 13 kts 352°
2026-04-21 14:53 39.50342 116.40576 94 ft 19 kts 351°
2026-04-21 14:53 39.50410 116.40565 94 ft 15 kts 353°
2026-04-21 14:53 39.50503 116.40553 94 ft 11 kts
2026-04-21 14:53 39.50543 116.40560 94 ft 5 kts 10°
2026-04-21 14:54 39.50555 116.40563 94 ft 0 kts 10°